TimeEST,TemperatureF,Dew PointF,Humidity,Sea Level PressureIn,VisibilityMPH,Wind Direction,Wind SpeedMPH,Gust SpeedMPH,PrecipitationIn,Events,Conditions,WindDirDegrees,DateUTC
12:53 AM,72.0,54.0,53,30.20,10.0,East,15.0,-,N/A,,Scattered Clouds,90,2012-12-04 05:53:00
1:53 AM,72.0,50.0,46,30.20,10.0,East,11.5,-,N/A,,Partly Cloudy,80,2012-12-04 06:53:00
2:53 AM,72.0,54.0,53,30.19,10.0,East,9.2,-,N/A,,Partly Cloudy,80,2012-12-04 07:53:00
3:53 AM,72.0,55.9,57,30.18,10.0,ENE,8.1,-,N/A,,Partly Cloudy,70,2012-12-04 08:53:00
4:53 AM,72.0,57.9,61,30.17,10.0,ENE,10.4,-,N/A,,Partly Cloudy,60,2012-12-04 09:53:00
5:53 AM,72.0,59.0,64,30.18,10.0,ENE,9.2,-,N/A,,Scattered Clouds,70,2012-12-04 10:53:00
6:53 AM,73.0,61.0,66,30.20,10.0,ENE,9.2,-,0.00,,Mostly Cloudy,70,2012-12-04 11:53:00
7:53 AM,73.9,61.0,64,30.21,10.0,East,12.7,-,N/A,,Mostly Cloudy,80,2012-12-04 12:53:00
8:53 AM,73.9,61.0,64,30.22,10.0,East,13.8,-,0.00,,Mostly Cloudy,80,2012-12-04 13:53:00
9:53 AM,77.0,60.1,56,30.24,10.0,East,18.4,-,N/A,,Scattered Clouds,100,2012-12-04 14:53:00
10:53 AM,78.1,59.0,52,30.24,10.0,East,17.3,-,N/A,,Mostly Cloudy,90,2012-12-04 15:53:00
11:53 AM,78.1,57.0,48,30.23,10.0,East,15.0,-,N/A,,Mostly Cloudy,80,2012-12-04 16:53:00
12:53 PM,77.0,55.0,47,30.20,10.0,ENE,17.3,21.9,N/A,,Mostly Cloudy,70,2012-12-04 17:53:00
1:53 PM,77.0,53.1,43,30.18,10.0,ENE,11.5,-,N/A,,Mostly Cloudy,70,2012-12-04 18:53:00
2:53 PM,77.0,55.9,48,30.17,10.0,ENE,10.4,-,N/A,,Scattered Clouds,60,2012-12-04 19:53:00
3:53 PM,75.9,57.9,54,30.16,10.0,East,10.4,-,N/A,,Mostly Cloudy,80,2012-12-04 20:53:00
4:53 PM,75.9,55.9,50,30.17,10.0,East,10.4,-,N/A,,Mostly Cloudy,80,2012-12-04 21:53:00
5:53 PM,75.0,55.0,50,30.18,10.0,ENE,6.9,-,N/A,,Mostly Cloudy,60,2012-12-04 22:53:00
6:53 PM,75.9,57.9,54,30.18,10.0,ENE,8.1,-,0.00,Rain,Light Rain,70,2012-12-04 23:53:00
7:53 PM,75.9,53.1,45,30.17,10.0,East,10.4,-,0.00,,Scattered Clouds,90,2012-12-05 00:53:00
8:53 PM,75.0,59.0,57,30.18,10.0,East,12.7,-,N/A,,Mostly Cloudy,80,2012-12-05 01:53:00
9:53 PM,73.9,60.1,62,30.17,10.0,East,12.7,-,N/A,,Scattered Clouds,90,2012-12-05 02:53:00
10:53 PM,73.9,61.0,64,30.17,10.0,East,12.7,-,N/A,,Scattered Clouds,90,2012-12-05 03:53:00
11:53 PM,73.0,61.0,66,30.15,10.0,East,9.2,-,N/A,,Scattered Clouds,80,2012-12-05 04:53:00